Main page
METAR-TAF:

METAR-TAF

Airports :

Ramsar, Iran

Ramsar International Airport

latitude: 36-54N, longitude: 050-40E, elevation: -23 m

Current weather observation

The report was made 50 minutes ago, at 04:00 UTC
Calm wind
Temperature 29°C
Humidity 70%
Pressure 1011 hPa
Visibility 10 km or more
Few clouds at a height of 2500 ft

METAR: OINR 240400Z 00000KT 9999 FEW025 29/23 Q1011

Time: 09:20 (04:50 UTC)


TAF: missing

Weather observations and forecasts of more than 4000 airports (METAR and TAF reports).

The available stations are represented by yellow and red dots on the map.

Hover mouse over dot to see the name of the station.

Then click to see weather observations and forecasts.

To change the map : click on the green buttons with a black cross to zoom in, on the green button with a dash to zoom out, or on the green arrows for adjacent maps.


METAR-TAF: